Flag for Finland Weather past 2 weeks in Rovaniemi, Finland

Now
43 °F

Broken clouds.


Feels Like: 35 °F
Forecast: 34 / 54 °F
Wind: 15 mph from West

Location: Rovaniemi Airport

Current Time: May 24, 2015 at 5:16:31 PM

Latest Report: May 24, 2015 at 4:50 PM


Visibility: N/A

Pressure: 29.65 "Hg

Humidity: 71%

Dew point: 34 °F

Location of RovaniemiLocation

Historic Weather in Rovaniemi — Graph

°F

Rovaniemi temperature yesterday

Maximum temperature yesterday: 46 °F (at 11:20 AM)
Minimum temperature yesterday: 34 °F (at 8:50 PM)
Average temperature yesterday: 43 °F

Past Weeks' High & Low Weather Summary

 TemperatureHumidityPressure
High57 °F (May 22, 3:20 PM)100% (May 9, 7:50 PM)29.95 "Hg (May 9, 7:50 PM)
Low30 °F (May 16, 3:20 AM)30% (May 10, 4:50 PM)29.21 "Hg (May 23, 4:50 PM)
Average42 °F83%29.68 "Hg
* Reported May 9 4:20 PM — May 24 4:20 PM, Rovaniemi, Weather by CustomWeather, © 2015

Note: Actual official high and low records may vary slightly from our data, if they occured in-between our weather recording intervals... More about our weather records

Advertising

Rovaniemi weather history for previous 24 hours

 ConditionsComfort  
Time TempWeatherWind HumidityBarometerVisibility
4:20 PM
Sun, May 24
43 °FScattered showers. Partly sunny.14 mph71%29.62 "HgN/A
3:50 PM43 °FScattered showers. Broken clouds.17 mph76%29.62 "HgN/A
3:20 PM41 °FScattered showers. Partly sunny.15 mph81%29.62 "HgN/A
2:50 PM41 °FSprinkles. Broken clouds.15 mph81%29.59 "HgN/A
2:20 PM41 °FSprinkles. Broken clouds.20 mph81%29.59 "HgN/A
1:50 PM41 °FSprinkles. Broken clouds.17 mph81%29.59 "HgN/A
1:20 PM39 °FSprinkles. Broken clouds.18 mph87%29.56 "HgN/A
12:50 PM41 °FBroken clouds.17 mph81%29.56 "HgN/A
12:20 PM41 °FScattered showers. Partly sunny.16 mph70%29.56 "HgN/A
11:50 AM41 °FPartly sunny.16 mph70%29.56 "HgN/A
11:20 AM39 °FSprinkles. Broken clouds.14 mph87%29.53 "HgN/A
10:50 AM39 °FSprinkles. Broken clouds.15 mph87%29.53 "HgN/A
10:20 AM41 °FScattered showers. Broken clouds.14 mph70%29.50 "HgN/A
9:50 AM39 °FLight rain. Partly sunny.14 mph70%29.50 "HgN/A
9:20 AM41 °FScattered clouds.14 mph70%29.50 "HgN/A
8:50 AM41 °FSunny.14 mph70%29.47 "Hg10 mi
8:20 AM39 °FSunny.13 mph81%29.47 "Hg10 mi
7:50 AM37 °FSunny.12 mph87%29.47 "Hg10 mi
7:20 AM37 °FSunny.12 mph87%29.47 "Hg10 mi
6:50 AM37 °FSunny.12 mph87%29.45 "Hg10 mi
6:20 AM36 °FSunny.12 mph93%29.45 "Hg10 mi
5:50 AM34 °FSunny.10 mph100%29.45 "Hg10 mi
5:20 AM36 °FSunny.10 mph93%29.45 "Hg10 mi
4:50 AM36 °FSunny.12 mph93%29.45 "Hg10 mi
4:20 AM36 °FSunny.12 mph93%29.42 "Hg10 mi
3:50 AM36 °FClear.12 mph93%29.42 "Hg10 mi
3:20 AM36 °FClear.13 mph93%29.42 "Hg10 mi
2:50 AM36 °FClear.13 mph100%29.42 "Hg10 mi
2:20 AM36 °FClear.12 mph100%29.42 "Hg10 mi
1:50 AM37 °FClear.14 mph93%29.42 "Hg10 mi
1:20 AM37 °FClear.14 mph100%29.42 "Hg10 mi
12:50 AM37 °FClear.14 mph100%29.42 "Hg10 mi
12:20 AM37 °FPartly sunny.10 mph100%29.42 "HgN/A
11:50 PM
Sat, May 23
37 °FSunny.10 mph100%29.42 "Hg10 mi
11:20 PM39 °FMostly cloudy.13 mph93%29.42 "HgN/A
10:50 PM37 °FMostly cloudy.12 mph100%29.39 "HgN/A
10:20 PM37 °FDrizzle. Broken clouds.16 mph100%29.39 "HgN/A
9:50 PM37 °FLight rain. Cloudy.17 mph100%29.36 "HgN/A
9:20 PM36 °FLight rain. Broken clouds.17 mph100%29.33 "Hg5 mi
8:50 PM34 °FSprinkles. Mostly cloudy.15 mph100%29.30 "Hg3 mi
8:20 PM36 °FFog.16 mph100%29.27 "Hg3 mi
7:50 PM39 °FLight rain. Broken clouds.12 mph100%29.24 "HgN/A
7:20 PM37 °FLight rain. Mostly cloudy.14 mph100%29.21 "HgN/A
6:50 PM37 °FRain. Mostly cloudy.18 mph100%29.21 "Hg4 mi
6:20 PM39 °FRain. Broken clouds.14 mph93%29.21 "HgN/A
5:50 PM41 °FLight rain. Cloudy.7 mph93%29.21 "HgN/A
5:20 PM43 °FRain showers. Broken clouds.3 mph93%29.21 "HgN/A
Weather by CustomWeather, © 2015

See weather overviewHow to use our weather pages